Location: ??????????
(54.8537°N, 38.8755°E)
Time: 14:27:55
(UTC+00:00)

deb Explorer IX - Visible Passes

Search period start: 13 September 2024 00:00
Search period end: 23 September 2024 00:00
Orbit: 505 x 849 km, 38.7° (Epoch: 13 September)

Date Brightness Start Highest point End Pass type
(mag) Time Alt. Az. Time Alt. Az. Time Alt. Az.
15 Sep ? 17:05:54 10° SSE 17:06:11 10° SSE 17:06:26 10° SSE visible
16 Sep ? 17:37:44 10° SSW 17:40:20 14° S 17:40:20 14° S visible
17 Sep ? 16:30:50 10° S 16:32:37 11° SSE 16:34:25 10° SE visible
17 Sep ? 18:11:38 10° SW 18:13:40 15° SSW 18:13:40 15° SSW visible
18 Sep ? 17:03:43 10° SSW 17:06:52 15° S 17:08:36 13° SSE visible
18 Sep ? 18:46:08 10° SW 18:46:49 12° SW 18:46:49 12° SW visible
19 Sep ? 17:37:38 10° SW 17:41:02 16° S 17:41:35 16° S visible
20 Sep ? 16:29:24 10° SSW 16:32:39 15° S 16:35:56 10° SE visible
20 Sep ? 18:12:05 10° SW 18:14:26 14° SSW 18:14:26 14° SSW visible
21 Sep ? 17:03:16 10° SW 17:06:36 16° S 17:08:57 13° SSE visible
22 Sep ? 15:54:47 10° SSW 15:58:00 15° S 16:01:17 10° SE visible
22 Sep ? 17:37:42 10° SW 17:40:25 13° SSW 17:41:33 13° S visible
